Regional Weather Roundup
Issued by NWS Newport/Morehead, NC

Current Version | Previous Version | Text Only | Print | Product List | Glossary On
Versions: 1 2 3 4 5 6 7 8 9 10 11 12 13 14 15 16 17 18 19 20 21 22 23 24 25 26 27 28 29 30 31 32 33 34 35 36 37 38 39 40 41 42 43 44 45 46 47 48 49 50
000
ASUS42 KMHX 222013
RWRMHX
WEATHER ROUNDUP FOR EASTERN NORTH CAROLINA
NATIONAL WEATHER SERVICE NEWPORT/MOREHEAD CITY NC
400 PM EDT MON MAY 22 2017

NOTE: "FAIR" INDICATES FEW OR NO CLOUDS BELOW 12,000 FEET
WITH NO SIGNIFICANT WEATHER AND/OR OBSTRUCTIONS TO VISIBILITY

NCZ015>017-031-032-045>047-102-103-222100-
NORTH COAST

CITY           SKY/WX    TMP DP  RH WIND       PRES   REMARKS
EDENTON        CLOUDY    82  71  69 W8G18     29.92S
ELIZABETH CITY TSTM      68  68 100 SW21      29.92S VSB 1
KITTY HAWK     NOT AVBL
MANTEO         CLOUDY    77  69  76 S21       29.95F

$$

NCZ045>047-081-094-103-104-222100-
CENTRAL COAST

CITY           SKY/WX    TMP DP  RH WIND       PRES   REMARKS
FRISCO         SUNNY     80  68  66 S14       29.98F

$$

NCZ095-097-098-100-101-222100-
SOUTHERN COAST

CITY           SKY/WX    TMP DP  RH WIND       PRES   REMARKS
BEAUFORT       MOSUNNY   80  72  76 S20       29.97F
CEDAR ISLAND   NOT AVBL
JACKSONVILLE   NOT AVBL
PINEY ISLAND   NOT AVBL
WILMINGTON     PTSUNNY   83  71  67 S17       29.95F


$$

NCZ011>013-027>030-043-044-078>080-089-090>093-098-222100-
COASTAL PLAIN

CITY           SKY/WX    TMP DP  RH WIND       PRES   REMARKS
AHOSKIE          N/A     74  69  84 CALM      29.94F
CLINTON        CLOUDY    86  67  52 NW3       29.95F
ELIZABETHTOWN  NOT AVBL
GOLDSBORO      SUNNY     85  68  55 NW10      29.93F
GREENVILLE     SUNNY     82  66  57 W8        29.96F
HAVELOCK       MOSUNNY   82  70  66 S17G25    29.96F
KENANSVILLE    CLOUDY    84  68  58 SW3       29.94F
KINSTON        MOSUNNY   86  64  48 W12       29.94F
NEW BERN       MOSUNNY   84  71  65 SW13G24   29.95F
RICHLANDS      PTSUNNY   89  69  51 VRB7      29.94F
ROCKY MOUNT    MOSUNNY   79  68  69 NW12      29.95F
WASHINGTON     MOSUNNY   85  69  60 W12G17    29.93F
WHITEVILLE     PTSUNNY   84  72  65 S12       29.95F

$$

AMZ130-135-150-152-154-156-158-170-250-252-270-ANZ085-086-088-633-658-670-222100-
MARINE OBSERVATIONS

STATION/POSITION TIME  TEMP    WIND        PRES    WAVE   SWELL
                       AIR SEA DIR/SP/G            HT/PER HT/PER
                 (UTC) (F)     (DEG/KT/KT) (MB)    (FT/S) (FT/S)
CHESAPEAKE LIGHT NOT AVBL
64 E VA BEACH    1950   70 69  180/ 12/ 16 1015.1    4/ 9   3/ 9
DUCK             1948   75 67  160/ 23/ 26 1012.4
2 E DUCK         1930      67                N/A     4/ 7
OREGON INLET     1942   77 74  170/ 16/ 21 1014.5
13E OREGON INLT  1948      67                N/A     4/ 8   2/ 8
HATTERAS CG      1948   77 74  170/ 11/ 15 1015.1
DIAMOND BUOY     1950   77 78  200/ 14/ 17 1015.6    4/ 8   3/ 8
CAPE LOOKOUT     2000   78     200/ 13/ 15 1014.9
BEAUFORT LAB     1948   78 75  210/ 16/ 18 1014.3
30 SE NEW RVR IN 1908   77 76  220/ 14/ 17 1016.1
30 SE NEW RVR IN 1943      77                N/A     4/ 4
27 SE WRIGHTSVLE 1908   76 76  200/ 12/ 19 1015.8
5 SE WRIGHTSVLE  1908   77 75  200/ 12/ 19 1015.6
225 S CAPE HAT   1950   76 79  180/  2/  4 1018.3    3/ 8   3/ 8
41 SE CHARLESTON 1950   78 78  180/ 12/ 14 1015.0    3/ 9   2/ 9

$$



USA.gov is the U.S. government's official web portal to all federal, state and local government web resources and services.